This is the latest recevied weather packets stored in our database for station/object WA4IKQ. If no packets are shown the sender has not sent any weather packets the latest 10 day(s).
| Time | Temp. | Humidity | Pressure | Rain* | Wind** | Luminosity | Snow |
|---|---|---|---|---|---|---|---|
| 1777526410 | 23.89° C | 81% | 1013.1 hPa | 0 mm | 1.34 m/s, 190° | - | - |
| 1777526247 | 23.89° C | 81% | 1013.1 hPa | 0 mm | 1.34 m/s, 190° | - | - |
| 1777526127 | 23.89° C | 81% | 1013.2 hPa | 0 mm | 1.79 m/s, 207° | - | - |
| 1777525956 | 23.89° C | 81% | 1013.2 hPa | 0 mm | 1.79 m/s, 207° | - | - |
| 1777525947 | 23.89° C | 81% | 1013.3 hPa | 0 mm | 1.34 m/s, 210° | - | - |
| 1777525647 | 23.89° C | 81% | 1013.3 hPa | 0 mm | 1.34 m/s, 210° | - | - |
| 1777525627 | 24.44° C | 80% | 1013.4 hPa | 0 mm | 0.89 m/s, 260° | - | - |
| 1777525348 | 24.44° C | 80% | 1013.4 hPa | 0 mm | 0.89 m/s, 260° | - | - |
| 1777525320 | 24.44° C | 80% | 1013.4 hPa | 0 mm | 0 m/s | - | - |
| 1777525045 | 24.44° C | 80% | 1013.4 hPa | 0 mm | 0 m/s | - | - |
| 1777524922 | 24.44° C | 79% | 1013.4 hPa | 0 mm | 0.89 m/s, 243° | - | - |
| 1777524746 | 24.44° C | 79% | 1013.4 hPa | 0 mm | 0.89 m/s, 243° | - | - |
| 1777524714 | 24.44° C | 79% | 1013.4 hPa | 0 mm | 1.34 m/s, 225° | - | - |
| 1777524446 | 24.44° C | 78% | 1013.4 hPa | 0 mm | 0 m/s | - | - |
| 1777524445 | 24.44° C | 79% | 1013.4 hPa | 0 mm | 1.34 m/s, 225° | - | - |
| 1777524205 | 24.44° C | 77% | 1013.4 hPa | 0 mm | 0.89 m/s, 232° | - | - |
| 1777524146 | 24.44° C | 78% | 1013.4 hPa | 0 mm | 0 m/s | - | - |
| 1777523846 | 24.44° C | 77% | 1013.4 hPa | 0 mm | 0.89 m/s, 232° | - | - |
| 1777523470 | 24.44° C | 76% | 1013.5 hPa | 0 mm | 1.34 m/s, 222° | - | - |
| 1777523247 | 24.44° C | 76% | 1013.5 hPa | 0 mm | 1.34 m/s, 222° | - | - |
| 1777523126 | 24.44° C | 75% | 1013.5 hPa | 0 mm | 0.45 m/s, 165° | - | - |
| 1777522944 | 24.44° C | 75% | 1013.5 hPa | 0 mm | 0.45 m/s, 165° | - | - |
| 1777522829 | 25° C | 74% | 1013.6 hPa | 0 mm | 1.34 m/s, 243° | - | - |
| 1777522522 | 25° C | 74% | 1013.6 hPa | 0 mm | 1.79 m/s, 198° | - | - |
| 1777522178 | 25° C | 73% | 1013.6 hPa | 0 mm | 1.79 m/s, 212° | - | - |
* Rain latest hour (hover to see other rain measurements)
** Current wind speed in m/s (hover to see current wind gust speed)